Weather Roundup
Issued by NWS

Home | Current Version | Previous Version | Text Only | Print | Product List | Glossary On
Versions: 1 2 3 4 5 6 7 8 9 10 11 12 13 14 15 16 17 18 19 20 21 22 23 24 25 26 27 28 29 30 31 32 33 34 35 36 37 38 39 40 41 42 43 44 45 46 47 48 49 50
000
NZUS93 KARX 261959
HRRWXR

CURRENT HOURLY OBSERVATIONS ACROSS
MUCH OF THE UPPER MISSISSIPPI VALLEY
NATIONAL WEATHER SERVICE LA CROSSE WI
200 PM CST FRI DEC 26 2014


...SOUTHEAST MINNESOTA...


CITY           SKY/WX    TMP DP  RH WIND       PRES   REMARKS
ROCHESTER      CLOUDY    33  30  88 N12       29.95R FOG     WCI  24
ROCHESTER/MAYO CLOUDY    33  31  91 N8        29.95S WCI  26
WINONA         CLOUDY    36  32  87 N6        29.97R WCI  31
AUSTIN         CLOUDY    32  30  93 N9G17     29.95S FOG     WCI  24
ALBERT LEA     CLOUDY    32  32 100 N12       29.95S FOG     WCI  23
DODGE CENTER   CLOUDY    32  30  93 N13       29.95S FOG     WCI  22
PRESTON        CLOUDY    32  30  94 N9        29.94R FOG     WCI  24
OWATONNA       PTSUNNY   32  28  86 N15       29.97F WCI  22
FARIBAULT      CLOUDY    32  28  86 N9        30.00R WCI  24
$$

...ELSEWHERE IN MINNESOTA...


CITY           SKY/WX    TMP DP  RH WIND       PRES   REMARKS
MINNEAPOLIS    CLOUDY    32  26  78 N16       30.01S WCI  21
INTNL FALLS    CLOUDY    24  17  74 NW9       30.08R WCI  14
DULUTH         FLURRIES  30  21  69 N7        30.01R WCI  23
RED WING       CLOUDY    34  28  80 N5        29.98R WCI  30
REDWOOD FALLS  CLOUDY    30  24  78 N13       30.04F WCI  20
MANKATO        CLOUDY    30  25  80 N15       30.00S WCI  19
WORTHINGTON    CLOUDY    27 -20  12 N17       29.98F WCI  14
FAIRMONT       CLOUDY    30  27  86 N15       29.98S WCI  19
$$

...SOUTHWEST WISCONSIN...


CITY           SKY/WX    TMP DP  RH WIND       PRES   REMARKS
LA CROSSE      SUNNY     42  32  67 W7        29.94R
PRAIRIE DU CHI PTSUNNY   44  32  63 CALM      29.92S
BOSCOBEL       MOSUNNY   47  33  58 SW3       29.93S
LONE ROCK      NOT AVBL
PLATTEVILLE    MOSUNNY   44  35  72 SW5       29.94S
FORT MC COY    MOSUNNY   44  32  63 S3        29.93S
VIROQUA        FAIR      40  33  76 CALM      29.91S
WIS DELLS      NOT AVBL
$$

...ELSEWHERE IN WISCONSIN...


CITY           SKY/WX    TMP DP  RH WIND       PRES   REMARKS
MILWAUKEE      PTSUNNY   47  35  63 SW8       29.96R
MADISON        PTSUNNY   45  34  65 W6        29.93F
GREEN BAY      PTSUNNY   45  37  73 CALM      29.95S
EAU CLAIRE     NOT AVBL
BLACK RVR FLS  CLOUDY    41  32  69 N6        29.93R
MEDFORD        CLOUDY    32  30  92 N8        29.92S FOG     WCI  25
WAUSAU         CLOUDY    35  30  82 N5        29.92S WCI  31
WIS RAPIDS     PTSUNNY   44  32  62 N6        29.94R
MARSHFIELD     SUNNY     38  31  76 E7        29.92S WCI  33
RICE LAKE      CLOUDY    32  28  83 N12       29.99S WCI  23
$$

...NORTHEAST IOWA...


CITY           SKY/WX    TMP DP  RH WIND       PRES   REMARKS
DECORAH        MOSUNNY   39  34  81 CALM      29.91R
MASON CITY     CLOUDY    33  31  92 N17       29.96S FOG     WCI  22
CHARLES CITY   CLOUDY    32  32 100 N10       29.94S FOG     WCI  24
OELWEIN        PTSUNNY   41  34  75 VRB5      29.93R
$$

...ELSEWHERE IN IOWA...


CITY           SKY/WX    TMP DP  RH WIND       PRES   REMARKS
DES MOINES     CLOUDY    35  31  85 N8        29.95S FOG     WCI  29
IOWA CITY      CLOUDY    48  36  63 SW9       29.94F
FORT DODGE     CLOUDY    32  28  86 N10       29.95F WCI  24
$$

...NORTHERN ILLINOIS...


CITY           SKY/WX    TMP DP  RH WIND       PRES   REMARKS
CHICAGO-OHARE  PTSUNNY   49  37  63 SW13G18   29.98S
CHICAGO-MIDWAY PTSUNNY   51  39  63 S12G20    30.00S
MOLINE         PTSUNNY   51  37  58 SW9       29.93F
ROCKFORD       CLOUDY    50  36  58 SW9       29.98S
PEORIA         MOSUNNY   54  40  59 SW13      29.99F
$$

NOTE: "FAIR" INDICATES FEW OR NO CLOUDS BELOW 12,000 FEET WITH NO
SIGNIFICANT WEATHER AND/OR OBSTRUCTIONS TO VISIBILITY. WIND
SPEEDS ARE IN MILES-PER-HOUR.



USA.gov is the U.S. government's official web portal to all federal, state and local government web resources and services.